Regional Weather Roundup
Issued by NWS Wakefield, VA

Home | Current Version | Previous Version | Graphics & Text | Print | Product List | Glossary On
Versions: 1 2 3 4 5 6 7 8 9 10 11 12 13 14 15 16 17 18 19 20 21 22 23 24 25 26 27 28 29 30 31 32 33 34 35 36 37 38 39 40 41 42 43 44 45 46 47
512
ASUS41 KAKQ 080314
RWRAKQ

REGIONAL WEATHER ROUNDUP
NATIONAL WEATHER SERVICE WAKEFIELD VA
1000 PM EST SUN FEB 07 2016

Note: "fair" indicates few or no clouds below 12,000 feet with no
significant weather and/or obstructions to visibility. * = Denotes
station may not report precipitation (e.g., rain,snow,etc.),
thunder or fog.

VAZ042-051-052>054-056-080400-
NORTHERN VIRGINIA

CITY           SKY/WX    TMP DP  RH WIND       PRES   REMARKS
WASH NATIONAL  CLOUDY    39  24  55 N9        29.91F
DULLES         MOCLDY    37  22  54 N7        29.91F
FORT BELVOIR   FAIR      39  20  46 NW5       29.91F
QUANTICO       FAIR      41  20  43 N8        29.92F
FREDERICKSBRG* FAIR      38  22  53 CALM      29.90S
STAFFORD*      FAIR      34  22  61 N7        29.94F
WARRENTON      FAIR      30  26  84 CALM      29.90F
CULPEPER*      FAIR      30  22  73 CALM      29.91F
MANASSAS*      NOT AVBL
LEESBURG*      FAIR      36  28  75 N7        29.92F
WINCHESTER     FAIR      28  23  80 CALM      29.91F
FRONT ROYAL*   FAIR      30  23  74 CALM      29.90F
LURAY*         FAIR      28  25  86 CALM      29.90F
$$

VAZ048-049-060>072-079>083-080400-
CENTRAL AND SOUTH CENTRAL VIRGINIA

CITY           SKY/WX    TMP DP  RH WIND       PRES   REMARKS
RICHMOND       CLOUDY    38  21  50 N12       29.85F
CHESTERFIELD*  FAIR     N/A N/A N/A N9        29.86F
PETERSBURG*    FAIR      41  15  35 N13G18    29.84F
HANOVER        FAIR      39  20  46 N5        29.88F
TAPPAHANNOCK*  FAIR      40  25  54 NW7       29.86F
QUINTON*       MOCLDY    39  23  52 N9G17     29.83F
CHARLOTTSVILLE FAIR      36  22  56 N3        29.89F
GORDONSVILLE*  FAIR      38  24  56 NE5       29.89F
ORANGE*        FAIR      36  25  64 N3        29.91F
LOUISA*        FAIR      37  23  56 N3        29.88F
BUMPASS*       FAIR      38  23  54 N5        29.89F
FARMVILLE*     FAIR      39  22  50 N3        29.87F
CREWE*         FAIR      37  22  54 N7        29.87S
FORT PICKETT*  FAIR      37  19  48 N8        29.85S
CHASE CITY*    FAIR      37  21  53 N6        29.87S
CLARKSVILLE*   FAIR      37  25  60 N7        29.86F
SOUTH HILL*    FAIR      37  22  53 N10       29.90R
LAWRENCEVILLE* FAIR      39  20  46 N7        29.82F
EMPORIA*       MOCLDY    39  23  52 NW12      29.83F
$$

VAZ088>098-080400-
SOUTHEAST VIRGINIA

CITY           SKY/WX    TMP DP  RH WIND       PRES   REMARKS
NORFOLK        LGT RAIN  40  32  73 N23G32    29.74F
VIRGINIA BEACH LGT RAIN  43  35  73 N22G29    29.71F
NORFOLK NAVAL  LGTSLEET  40  32  73 N24G32    29.77F
WEST POINT*    FAIR      41  24  52 NW10G17   29.84S
SALUDA*        MOCLDY    41  28  60 N16G26    29.80F
NEWPORT NEWS   CLOUDY    41  28  60 N13       29.78F
LANGLEY AFB    MOCLDY    40  30  67 N20       29.75F
FORT EUSTIS    FAIR      41  24  50 N14G21    29.77F
WILLIAMSBURG*  FAIR      43  28  56 N7G23     29.80F
HR EXEC AP*    CLOUDY    37  32  81 N9G22     29.77F
FRANKLIN*      CLOUDY    38  29  67 N9G20     29.78F
US460-WAKEFLD  CLOUDY    42  24  49 N9G18     29.79F
$$

VAZ020-022-025-037-045-080400-
WEST CENTRAL AND SOUTHWEST VIRGINIA

CITY           SKY/WX    TMP DP  RH WIND       PRES   REMARKS
STAUNTON*      FAIR      31  26  83 CALM      29.91F
WAYNESBORO*    FAIR      34  22  62 W3        29.88F
HOT SPRINGS VA FAIR      33  22  63 N3        29.81F
LYNCHBURG      FAIR      35  24  64 N3        29.89F
DANVILLE       FAIR      39  25  57 NW6       29.89F
SOUTH BOSTON*  FAIR      37  23  55 N6        29.87F
MARTINSVILLE   FAIR      27  23  85 CALM      29.91F
ROANOKE        FAIR      34  24  67 NW3       29.90F
BLACKSBURG     FAIR      31  25  77 CALM      29.90F
DUBLIN*        FAIR      35  25  65 W3        29.89S
MARION*        FAIR      32  23  71 CALM      29.91F
HILLSVILLE*    FAIR      38  21  50 NW8       29.85S
RICHLANDS*     FAIR      38  17  41 CALM      29.88S
WISE*          FAIR      36  16  44 S6        29.89F
ABINGDON*      FAIR      33  23  66 W3        29.91S
$$

MDZ021>025-VAZ099-100-080400-
SOUTHERN MARYLAND AND THE DELMARVA PENINSULA

CITY           SKY/WX    TMP DP  RH WIND       PRES   REMARKS
PATUXENT RIVER CLOUDY    40  27  59 N15       29.85F
BAY BRIDGE APT   N/A     37  27  65 CALM      29.90F
LEONARDTOWN    CLOUDY    39  27  60 N5        29.87F
DOVER          CLOUDY    39  31  72 N13       29.86F
GEORGETOWN     CLOUDY    40  31  70 N15G22    29.83F
EASTON         CLOUDY    39  27  62 NE8       29.91F
CAMBRIDGE      CLOUDY    39  27  60 N12       29.85F
SALISBURY      CLOUDY    40  32  73 N13       29.80F
OCEAN CITY     CLOUDY    41  36  82 N15G24    29.78F
WALLOPS ISLAND CLOUDY    42  33  70 N15G23    29.77F
ACCOMACK*      CLOUDY    37  34  87 N8        29.76F
$$

NCZ012>017-030>032-080400-
NORTH CENTRAL AND EASTERN NORTH CAROLINA

CITY           SKY/WX    TMP DP  RH WIND       PRES   REMARKS
ROANOKE RAPIDS FAIR      41  23  48 N15G23    29.80F
RALEIGH        CLOUDY    41  22  46 VRB7      29.86S
ELIZABETH CITY CLOUDY    40  36  86 N26G36    29.67F
AHOSKIE*       PTCLDY    39  27  63 N9G16     29.78S
EDENTON*       LGT RAIN  40  36  86 N17G24    29.69F
CURRITUCK*     DRIZZLE   41  39  92 N21G26    29.68F
KILL DEVIL HLS RAIN      44  42  92 N20G36    29.55F
MANTEO         LGT RAIN  43  43  99 N29G43    29.57F
CAPE HATTERAS  LGT RAIN  45  43  93 N17G38    29.44S
TARBORO*       CLOUDY    42  26  53 NW14G22   29.79F
GOLDSBORO      CLOUDY    41  25  52 NW14G22   29.76F
WASHINGTON     LGT RAIN  37  33  87 NW14G24   29.71S
GREENVILLE     CLOUDY    37  32  81 N12G22    29.78R
NEW BERN       LGT RAIN  38  32  79 N18G30    29.68F
WILMINGTON     CLOUDY    40  29  64 NW21G29   29.74S
$$

VAZ048-080400-
ELSEWHERE

CITY           SKY/WX    TMP DP  RH WIND       PRES   REMARKS
HARRISBURG PA  CLOUDY    32  23  69 NW5       29.92F
BALTIMORE      CLOUDY    39  21  48 N3        29.90F
ANNAPOLIS      CLOUDY    40  26  57 N6        29.90F
ANDREWS AFB    FAIR      34  23  63 N7        29.89S
PHILADELPHIA   CLOUDY    40  23  50 NE13      29.92F
HENDERSON NC   CLOUDY    39  21  48 NW8       29.86R
GREENSBORO     CLOUDY    38  22  52 N3        29.88S
ROCKY MOUNT    CLOUDY    41  24  51 N14       29.80F
$$

VAZ100-080400-
MARINE

STATION/POSITION TIME  TEMP    WIND        PRES    WAVE   SWELL
                       AIR SEA DIR/SP/G            HT/PER HT/PER
                 (UTC) (F)     (DEG/KT/KT) (MB)    (FT/S) (FT/S)
BRANDYWINE LGT   0200   39                 1011.4F
CAPE MAY NJ      0200   40 42              1011.1F
LEWES DE         0200   41 41              1011.1F
15NM E FENWICK I 0250   45 45              1007.4F   9/ 8
OCEAN-CITY-INLET 0200   43 41              1008.8F
WACHAPREAGUE VA  0200   41 42              1008.4F
THOMAS POINT MD  0300           10/ 15       N/A
GOOSES REEF MD   0300   40 40   20/ 14/ 17 1012.4F   2/ 3
COVE POINT MD    0200   39                 1012.5F
SOLOMONS ISLAND  0200   41 41                N/A
BISHOPS HEAD MD  0200   40 40              1009.7F
POTOMAC MD       0300   41 40   10/ 17/ 23 1009.2F   1/ 2
CAMBRIDGE MD     0200   41 40              1010.9F
LEWISETTA VA     0200   41 42              1010.9F
RAPPAHANNOCK LGT 0200                      1008.7F
STINGRAY PT      0300   41 42   10/ 21/ 27 1008.2F   3/ 4
YORK RVR RNG VA  0200   42                 1007.6F
YORKTOWN VA      0200   42 43              1008.9F
JAMESTOWN VA     0300   41 44  350/ 10/ 16   N/A     0
DOMINION TERM VA 0200   40                 1008.8F
KIPTOPEKE VA     0200      43                N/A
CHES BAY BRIDGE  0200   39 43              1007.1F
CAPE HENRY VA    0200   41                   N/A
CHESAPEAKE LGHT  0200   44      20/ 33/ 37 1005.5F
WILLOUBY STN VA  0200   40                 1027.5S
CAPE HENRY BUOY  0228      46                N/A    10/10   3/11
1ST LANDING BUOY 0300      44                N/A     8/ 6
CAPE CHARLES BUO 0226      45                N/A    10/ 9   7/ 9
OFFSHORE WE BUOY 0221      48                N/A    12/ 8  10/ 8
64NM E OF VA BCH 0250   51 54   20/ 37/ 47  998.1F  16/ 9   7/14
DUCK PIER NC     0200   45 53              1000.8F
44100 DUCK FRF   0224      47                N/A    16/11   7/11
44056 DUCK FRF   0211      45                N/A    15/ 9   5/11
OREGON INLET NC  0200   45 45               999.5F
HATTERAS NC      0200   45 47               996.3F
DIAMOND SHLS NC  0250   51 71  350/ 45/ 52  991.9R  18/11  11/11
$$




USA.gov is the U.S. government's official web portal to all federal, state and local government web resources and services.